Terminal Aerodrome Forecast
Issued by NWS Pittsburgh, PA

Current Version | Previous Version | Graphics & Text | Print | Product List | Glossary On
Versions: 1 2 3 4 5 6 7 8 9 10 11 12 13 14 15 16 17 18 19 20 21 22 23 24 25 26 27 28 29 30
000
FTUS41 KPBZ 151300 AAA
TAFPIT
TAF AMD
KPIT 151344Z 1514/1618 31012G22KT 3SM -SN OVC008
     FM151700 31019G26KT P6SM -SHSN OVC015
     FM152000 32010G20KT P6SM VCSH BKN025
     FM160600 33005KT P6SM BKN035=

USA.gov is the U.S. government's official web portal to all federal, state and local government web resources and services.